Location: Unspecified
(0.0000°N, 0.0000°E)
Time: 15:23:39
(UTC+00:00)

Altair - Pass Details

Date: 02 November 2021
Orbit: 1502 x 1682 km, 47.2° (Epoch: 26 November)

Event Time Altitude Azimuth Distance (km) Brightness Sun altitude
Rises 11:35:20 0° 273° (W) 4,911 10.1 75.0°
Reaches altitude 10° 11:41:24 10° 246° (WSW) 3,940 9.9 75.1°
Maximum altitude 11:45:04 12° 224° (SW) 3,754 9.9 75.1°
Drops below altitude 10° 11:48:44 10° 202° (SSW) 3,940 10.0 75.0°
Sets 11:54:55 0° 174° (S) 4,913 10.3 74.8°
